FW93366 Weather Reports


time (UTC)temp
C
wind
direction
speed
KPH
gust
KPH
rain 1hr
cm
rain 24hr
cm
rain mn
cm
humidity
%
barometer
mb
20260502160104 11 0 0.0 0.0 0.00 0.00 0.00 62 1016.8
20260502151550 9 0 0.0 3.2 0.00 0.00 0.00 62 1016.7
20260502130103 6 0 0.0 4.8 0.00 0.00 0.00 78 1016.1
20260502123111 6 360 0.0 4.8 0.00 0.00 0.00 77 1016.1
20260502121538 6 0 0.0 6.4 0.00 0.00 0.00 72 1016.1
20260502114545 7 192 0.0 0.0 0.00 0.00 0.00 68 1016.2
20260502113039 8 0 0.0 0.0 0.00 0.00 0.00 70 1016.3
20260502111539 8 0 0.0 0.0 0.00 0.00 0.00 69 1016.2
20260502110049 8 0 0.0 0.0 0.00 0.00 0.00 69 1016.2
20260502104541 8 0 0.0 0.0 0.00 0.00 0.00 69 1016.2
20260502103039 8 0 0.0 0.0 0.00 0.00 0.00 70 1016.1
20260502101549 8 0 0.0 0.0 0.00 0.00 0.00 70 1016.1
20260502070044 12 0 0.0 0.0 0.00 0.00 0.00 55 1016.9
20260502064543 12 0 0.0 4.8 0.00 0.00 0.00 53 1016.7
20260502063055 13 0 0.0 3.2 0.00 0.00 0.00 51 1016.8
20260502061539 13 0 0.0 3.2 0.00 0.00 0.00 50 1016.7
20260502060040 13 167 1.6 8.0 0.00 0.00 0.00 49 1016.9
20260502054545 13 164 1.6 8.0 0.00 0.00 0.00 48 1017.0
20260502053045 13 188 3.2 6.4 0.00 0.00 0.00 47 1016.7
20260502051544 13 195 0.0 0.0 0.00 0.00 0.00 47 1016.8
20260502050039 14 0 0.0 6.4 0.00 0.00 0.00 46 1016.8
20260502044544 15 0 0.0 3.2 0.00 0.00 0.00 39 1016.7
20260502043040 14 253 1.6 6.4 0.00 0.00 0.00 43 1016.5
20260502041552 15 0 0.0 0.0 0.00 0.00 0.00 40 1016.4
20260502040043 15 0 0.0 3.2 0.00 0.00 0.00 38 1016.2
20260502034540 16 0 0.0 0.0 0.00 0.00 0.00 39 1016.1
20260502033045 17 0 0.0 1.6 0.00 0.00 0.00 35 1015.9
20260502031539 17 0 1.6 11.3 0.00 0.00 0.00 36 1015.7
20260502030038 18 311 4.8 14.5 0.00 0.00 0.00 28 1015.4
20260502024600 18 270 6.4 14.5 0.00 0.00 0.00 28 1015.3
20260502023039 19 252 4.8 14.5 0.00 0.00 0.00 27 1015.3
20260502021540 20 257 6.4 17.7 0.00 0.00 0.00 26 1015.3
20260502020039 20 241 9.7 17.7 0.00 0.00 0.00 24 1015.1
20260502014543 21 251 6.4 14.5 0.00 0.00 0.00 20 1015.3
20260502013045 21 261 6.4 14.5 0.00 0.00 0.00 19 1015.3
20260502011542 21 274 3.2 14.5 0.00 0.00 0.00 19 1015.2
20260502010050 22 254 8.0 17.7 0.00 0.00 0.00 16 1015.4
20260502004553 22 325 1.6 14.5 0.00 0.00 0.00 16 1015.4
20260502003043 22 304 6.4 14.5 0.00 0.00 0.00 17 1015.4
20260502001540 22 248 4.8 12.9 0.00 0.00 0.00 16 1015.5
20260502000044 22 347 4.8 12.9 0.00 0.00 0.00 15 1015.5
20260501234541 22 305 3.2 11.3 0.00 0.00 0.00 15 1015.7
20260501233047 22 268 0.0 12.9 0.00 0.00 0.00 17 1015.9
20260501231540 22 304 3.2 14.5 0.00 0.00 0.00 17 1016.1
20260501230046 23 248 4.8 16.1 0.00 0.00 0.00 16 1016.3
20260501224550 22 0 3.2 12.9 0.00 0.00 0.00 18 1016.5
20260501223042 21 307 3.2 16.1 0.00 0.00 0.00 16 1016.7
20260501221539 22 5 3.2 11.3 0.00 0.00 0.00 18 1017.0
20260501220048 22 323 3.2 11.3 0.00 0.00 0.00 19 1017.3
20260501214545 22 136 3.2 11.3 0.00 0.00 0.00 20 1017.5
20260501213050 22 16 1.6 6.4 0.00 0.00 0.00 20 1017.6
20260501211548 21 32 3.2 9.7 0.00 0.00 0.00 20 1017.7
20260501210043 21 256 0.0 11.3 0.00 0.00 0.00 21 1017.9
20260501204551 21 249 1.6 16.1 0.00 0.00 0.00 23 1018.1
20260501203048 21 213 8.0 17.7 0.00 0.00 0.00 24 1018.3
20260501201546 20 240 4.8 12.9 0.00 0.00 0.00 24 1018.5
20260501200044 20 192 8.0 14.5 0.00 0.00 0.00 24 1018.9
20260501194541 19 244 9.7 20.9 0.00 0.00 0.00 27 1019.2
20260501193039 19 159 1.6 11.3 0.00 0.00 0.00 26 1019.2
20260501191543 19 165 8.0 16.1 0.00 0.00 0.00 25 1019.3
20260501190048 18 202 9.7 19.3 0.00 0.00 0.00 25 1019.5
20260501184558 18 188 4.8 14.5 0.00 0.00 0.00 27 1019.6
20260501183044 18 288 3.2 12.9 0.00 0.00 0.00 27 1019.8
20260501181543 17 26 1.6 11.3 0.00 0.00 0.00 29 1019.8
20260501180050 17 324 1.6 9.7 0.00 0.00 0.00 29 1020.1
20260501174548 16 355 3.2 8.0 0.00 0.00 0.00 29 1020.2
20260501173041 15 120 3.2 8.0 0.00 0.00 0.00 33 1020.3
20260501171540 15 273 1.6 9.7 0.00 0.00 0.00 35 1020.2
20260501170051 14 24 0.0 6.4 0.00 0.00 0.00 36 1020.3
20260501164540 13 264 0.0 4.8 0.00 0.00 0.00 44 1020.5
20260501163051 12 223 1.6 9.7 0.00 0.00 0.00 50 1020.6
20260501161545 11 161 3.2 8.0 0.00 0.00 0.00 49 1020.7